WHDW 02-07

operational
NORAD ID: 62977 Int'l Des: 2025-030 Owner: ZXW Country: CN
LEOCIRCULAR

关于 WHDW 02-07

正在加载描述...

实时位置

正在加载3D地球...

即将过境

高度历史

Altitude vs Time

uPlot chart will show altitude changes over time

两行轨道根数

1 62977U 25030G 26063.08434560 -.00000087 00000-0 80225-4 0 9995
2 62977 50.0047 252.5304 0000734 152.8272 207.2639 13.29338127 51881
Epoch: Mar 4, 2026 • Age: 23 hours

当前状态

高度 1165.2 km
速度 7.27 km/s
星下点 -47.22°S, 16°W
发射日期 Feb 11, 2025
运行时间 1 years
类型 other

技术详情

分类 Payload
质量 700.00 kg
干质量 700.00 kg
总质量 700.00 kg
长度 3.00 m
直径 1.00 m
跨度 10.00 m
形状 Box + 2 Pan
制造商 CAST
平台类型 Xingwang C
阶段状态 In Orbit
所有者/国家 ZXW/CN

大型星座

Loading constellations...